Regional Weather Roundup
Issued by NWS

Home | Current Version | Previous Version | Text Only | Print | Product List | Glossary Off
Versions: 1 2 3 4 5 6 7 8 9 10 11 12 13 14 15 16 17 18 19 20 21 22 23 24 25 26 27 28 29 30 31 32 33 34 35 36 37 38 39 40 41 42 43 44 45 46 47 48 49 50

000
ASUS43 KFSD 261310
RWRSD

WEATHER ROUNDUP FOR SOUTH DAKOTA
NATIONAL WEATHER SERVICE SIOUX FALLS SD
800 AM CDT THU APR 26 2018

NOTE: "FAIR" INDICATES FEW OR NO CLOUDS BELOW 12,000 FEET WITH NO
SIGNIFICANT WEATHER AND/OR OBSTRUCTIONS TO VISIBILITY.


SDZ001>005-009-010-012>017-261400-
NORTHWEST AND NORTH CENTRAL SOUTH DAKOTA

CITY           SKY/WX    TMP DP  RH WIND       PRES   REMARKS
BUFFALO          N/A     41  31  67 NW13      30.13R
FAITH            N/A     40  35  83 W8        30.16R
MOBRIDGE       SUNNY     42  32  67 NW10      30.09R
$$

SDZ012>016-024>037-041>051-057-063-072>074-261400-
SOUTHWEST AND SOUTH CENTRAL SOUTH DAKOTA

CITY           SKY/WX    TMP DP  RH WIND       PRES   REMARKS
RAPID CTY ARPT PTSUNNY   44  33  65 N13       30.20R
PIERRE         SUNNY     44  33  65 N18G26    30.08R
CUSTER         SUNNY     37  27  67 NW6       30.20R
ELLSWORTH AFB  CLOUDY    45  34  64 NW13      30.20R
PHILIP         SUNNY     44  34  67 NW16      30.14R
PINE RIDGE     SUNNY     46  33  60 N15G21    30.17R
SPEARFISH      FAIR      45  32  61 W12       30.23R
WINNER         FAIR      45  33  63 N17       30.06R
$$

SDZ004>011-016>023-039-040-261400-
NORTHEAST SOUTH DAKOTA

CITY           SKY/WX    TMP DP  RH WIND       PRES   REMARKS
ABERDEEN       SUNNY     45  33  63 N22       30.02R
WATERTOWN      MOSUNNY   43  34  70 N20       29.92R
BROOKINGS      MOSUNNY   45  36  70 NW12      29.90R
SISSETON         N/A     45  34  65 NW17      29.96R
$$

SDZ017-020-022-023-036>040-048>070-261400-
SOUTHEAST SOUTH DAKOTA

CITY           SKY/WX    TMP DP  RH WIND       PRES   REMARKS
SIOUX FALLS    CLOUDY    46  34  62 W7        29.89R
HURON          MOSUNNY   44  34  67 N18G26    29.98R
CHAMBERLAIN    MOSUNNY   47  34  59 N17G26    30.02R
MITCHELL       CLOUDY    46  37  71 N18G29    29.93R
YANKTON        CLOUDY    49  37  63 SW12      29.90R
$$

ABBREVIATIONS USED IN REMARKS
   TC - TEMPERATURE IN CELSIUS
  WCI - WIND CHILL INDEX
   HX - HEAT INDEX
  VSB - VISIBILITY





USA.gov is the U.S. government's official web portal to all federal, state and local government web resources and services.